Погода в Гайсине

Украина / Винницкая область     48°48′39″N   29°23′18″E
темп.,
°C
ветер,
м/с
пор.,
м/с
влажн.,
%
обл.,
%
осадки,
мм/ч
давл.,
гПа
погр.,
м
17 апреля, сб
сб1700:00+4зсз598496 0.0 1016695
03:00+3з598495 0.0 1017574
06:00+3з5983100 0.0 1018681
09:00+5з5784100 0.0 1019666
12:00+5зюз5692100 0.1 1020665
15:00+6з458392 0.2 1020675
18:00+7зсз3376100 0.0 1020656
21:00+6сз2287100 0.0 102055
18 апреля, вс
вс1800:00+4сз2293100 0.0 102028
03:00+3зсз119295 0.0 102010
06:00+2зсз12935 0.0 101910
09:00+7з227876 0.0 1019314
12:00+11з236161 0.0 10181123
15:00+13з3353100 0.0 10171440
18:00+13сз2254100 0.0 10161333
21:00+9с1166100 0.1 101711
19 апреля, пн
пн1900:00+8св3486100 0.0 101781
03:00+7св2493100 0.0 101786
06:00+6всв239593 0.1 1017126
09:00+8всв338392 0.1 1017382
12:00+12всв336987 0.1 10161050
15:00+11св446798 0.6 1015953
18:00+11св567098 0.3 1014821
21:00+8св498087 0.3 1014243
20 апреля, вт
вт2000:00+6св51084100 0.0 1013302
03:00+6св61284100 0.0 1010345
06:00+6ссв61380100 0.0 1007469
09:00+7ссв81479100 0.3 1006671
12:00+6с91488100 1.3 1005612
15:00+7ссз91488100 2.1 1004838
18:00+7ссз81389100 0.1 1005707
21:00+6сз71291100 0.1 1007559
21 апреля, ср
ср2100:00+6сз61092100 0.0 1008497
03:00+5зсз4892100 0.0 1010527
06:00+5зсз4794100 0.0 1011659
09:00+6зсз4686100 0.3 1013740
12:00+8сз365990 0.1 10141245
15:00+10з4656100 0.2 10151422
18:00+11зюз245827 0.3 10151185
21:00+7юз227398 0.3 101722